DW3361 Weather Reports


time (UTC)temp
F
wind
direction
speed
knots
gust
knots
rain 1hr
in
rain 24hr
in
rain mn
in
humidity
%
barometer
mb
20260507164554 70 30 0.0 5.2 0.00 0.00 0.00 34 1008.2
20260507163046 71 355 0.0 5.2 0.00 0.00 0.00 33 1008.1
20260507161555 73 18 0.0 5.2 0.00 0.00 0.00 32 1007.9
20260507160101 72 304 3.5 10.4 0.00 0.00 0.00 36 1008.0
20260507154545 72 281 5.2 13.0 0.00 0.00 0.00 36 1007.8
20260507153044 72 263 5.2 11.3 0.00 0.00 0.00 37 1007.8
20260507151543 72 276 7.0 15.6 0.00 0.00 0.00 38 1007.7
20260507150043 72 224 2.6 13.0 0.00 0.00 0.00 40 1007.7
20260507144550 71 286 8.7 14.8 0.00 0.00 0.00 39 1007.7
20260507143041 72 267 3.5 12.2 0.00 0.00 0.00 37 1007.8
20260507141540 71 288 6.1 9.6 0.00 0.00 0.00 39 1007.9
20260507140040 72 298 9.6 12.2 0.00 0.00 0.00 38 1008.0
20260507134537 71 298 7.0 12.2 0.00 0.00 0.00 40 1008.1
20260507133040 72 272 7.8 12.2 0.00 0.00 0.00 38 1008.2
20260507131537 72 288 8.7 14.8 0.00 0.00 0.00 36 1008.3
20260507130040 72 267 7.0 11.3 0.00 0.00 0.00 37 1008.7
20260507124536 71 259 0.0 8.7 0.00 0.00 0.00 40 1008.8
20260507123041 71 235 2.6 9.6 0.00 0.00 0.00 36 1008.9
20260507121536 71 248 0.0 12.2 0.00 0.00 0.00 35 1009.0
20260507120033 72 198 2.6 6.1 0.00 0.00 0.00 35 1009.0
20260507114532 71 279 0.9 7.8 0.00 0.00 0.00 37 1009.2
20260507113034 71 279 2.6 10.4 0.00 0.00 0.00 38 1009.3
20260507111537 71 267 3.5 7.0 0.00 0.00 0.00 36 1009.5
20260507110033 72 81 0.0 3.5 0.00 0.00 0.00 32 1009.5
20260507104529 71 293 0.0 3.5 0.00 0.00 0.00 33 1009.7
20260507103127 70 281 3.5 8.7 0.00 0.00 0.00 32 1009.9
20260507101527 70 308 0.0 3.5 0.00 0.00 0.00 32 1010.0
20260507100027 71 338 0.9 4.3 0.00 0.00 0.00 34 1010.1
20260507094526 71 313 0.0 7.8 0.00 0.00 0.00 35 1010.2
20260507093023 70 112 0.0 5.2 0.00 0.00 0.00 41 1010.3
20260507091520 69 70 0.0 5.2 0.00 0.00 0.00 44 1010.4
20260507090018 69 331 1.7 5.2 0.00 0.00 0.00 42 1010.3
20260507084517 67 5 0.9 7.0 0.00 0.00 0.00 45 1010.2
20260507083010 64 21 0.0 1.7 0.00 0.00 0.00 52 1010.4
20260507081507 63 36 0.0 2.6 0.00 0.00 0.00 53 1010.3
20260507080005 62 53 0.0 3.5 0.00 0.00 0.00 54 1010.0
20260507074502 62 333 0.0 3.5 0.00 0.00 0.00 55 1010.2
20260507073100 61 47 0.0 5.2 0.00 0.00 0.00 56 1010.1
20260507071606 60 34 0.0 4.3 0.00 0.00 0.00 57 1010.0
20260507070055 60 54 0.0 0.9 0.00 0.00 0.00 57 1009.8
20260507064607 59 46 0.0 2.6 0.00 0.00 0.00 58 1009.6
20260507063056 59 61 0.0 1.7 0.00 0.00 0.00 59 1009.6
20260507061551 58 28 0.0 1.7 0.00 0.00 0.00 60 1009.7
20260507060050 58 85 0.0 0.0 0.00 0.00 0.00 61 1009.4
20260507054548 58 85 0.0 2.6 0.00 0.00 0.00 60 1009.3
20260507053045 58 23 0.0 5.2 0.00 0.00 0.00 61 1009.2
20260507051539 57 23 0.0 4.3 0.00 0.00 0.00 61 1009.1
20260507050040 57 34 0.0 1.7 0.00 0.00 0.00 61 1008.9
20260507044534 57 355 0.0 4.3 0.00 0.00 0.00 61 1008.8
20260507043032 57 5 0.0 3.5 0.00 0.00 0.00 62 1008.7
20260507041546 57 41 0.0 0.0 0.00 0.00 0.00 61 1008.6
20260507040028 57 11 0.0 2.6 0.00 0.00 0.00 62 1008.4
20260507034527 56 355 0.0 2.6 0.00 0.00 0.00 63 1008.4
20260507033031 56 69 0.0 0.0 0.00 0.00 0.00 64 1008.4
20260507031525 56 69 0.0 0.0 0.00 0.00 0.00 63 1008.4
20260507030025 56 69 0.0 1.7 0.00 0.00 0.00 63 1008.4
20260507024523 56 21 0.0 1.7 0.00 0.00 0.00 63 1008.3
20260507023021 57 360 0.0 2.6 0.00 0.00 0.00 61 1008.3
20260507021520 57 59 0.0 1.7 0.00 0.00 0.00 62 1008.3
20260507020021 58 57 0.0 1.7 0.00 0.00 0.00 61 1008.2
20260507014525 57 36 0.0 3.5 0.00 0.00 0.00 61 1008.3
20260507013034 57 74 0.0 4.3 0.00 0.00 0.00 61 1008.2
20260507011530 58 21 0.0 1.7 0.00 0.00 0.00 61 1008.3
20260507010013 59 26 0.0 3.5 0.00 0.00 0.00 59 1008.2
20260507004516 59 355 0.9 5.2 0.00 0.00 0.00 58 1008.2
20260507003011 59 13 0.0 2.6 0.00 0.00 0.00 58 1008.2
20260507001511 59 47 0.9 4.3 0.00 0.00 0.00 58 1008.3
20260507000022 59 63 0.0 5.2 0.00 0.00 0.00 58 1008.5
20260506234509 59 30 0.9 5.2 0.00 0.00 0.00 59 1008.5
20260506233008 59 70 0.0 4.3 0.00 0.00 0.00 57 1008.5
20260506231505 60 36 0.0 4.3 0.00 0.00 0.00 57 1008.4
20260506230004 60 31 0.9 4.3 0.00 0.00 0.00 56 1008.4
20260506224501 61 9 0.9 4.3 0.00 0.00 0.00 56 1008.3
20260506223126 61 5 0.0 2.6 0.00 0.00 0.00 55 1008.2
20260506221603 62 49 0.0 3.5 0.00 0.00 0.00 55 1008.0
20260506220057 62 53 0.0 4.3 0.00 0.00 0.00 54 1007.9
20260506214607 62 81 0.9 7.8 0.00 0.00 0.00 54 1007.9
20260506213055 62 42 0.9 9.6 0.00 0.00 0.00 54 1008.0
20260506211556 62 5 0.0 2.6 0.00 0.00 0.00 54 1007.9
20260506210057 62 355 0.0 1.7 0.00 0.00 0.00 53 1007.8
20260506204552 62 37 0.0 4.3 0.00 0.00 0.00 53 1007.6
20260506203100 62 36 0.9 4.3 0.00 0.00 0.00 53 1007.6
20260506201551 62 5 0.0 4.3 0.00 0.00 0.00 53 1007.4
20260506200130 62 35 0.0 3.5 0.00 0.00 0.00 53 1007.5
20260506194550 62 59 0.0 0.0 0.00 0.00 0.00 53 1007.4
20260506193051 62 59 0.0 9.6 0.00 0.00 0.00 52 1007.2
20260506191549 62 51 0.0 3.5 0.00 0.00 0.00 52 1007.1
20260506190048 62 14 0.0 3.5 0.00 0.00 0.00 51 1006.8
20260506184648 62 344 0.9 4.3 0.00 0.00 0.00 51 1006.6
20260506183047 62 17 0.0 7.8 0.00 0.00 0.00 52 1006.5
20260506181546 63 51 0.0 2.6 0.00 0.00 0.00 52 1006.5
20260506180051 64 40 0.0 7.8 0.00 0.00 0.00 52 1006.3
20260506174546 64 77 2.6 7.8 0.00 0.00 0.00 51 1006.3
20260506173050 64 84 0.0 4.3 0.00 0.00 0.00 51 1006.2
20260506171552 65 61 1.7 7.8 0.00 0.00 0.00 50 1006.2
20260506170044 65 72 0.9 9.6 0.00 0.00 0.00 50 1006.2